Погода в Рославле

Хотите узнать прогноз погоды в Рославле? Тогда Вам сюда: Погода в Рославле

Поиск расширенной информации на нашем сайте:

Полезная информация:

Новости сайта



02.01.2020
Опубликован Долгосрочный прогноз погоды по городам России и ближнего зарубежья на январь 2020 года.
Карты: Прогноз на январь и февраль 2020 года, Сравнение прогнозируемой аномалии приземной температуры воздуха на январь 2020 года по разным моделям.




Погода в Рославле - сегодня

Время (UTC), дата Ветер
(°,м/с) 
Видим.   Явления Облачность Т
(°С)
Тd
(°С)
f(%) Тe
(°С)
Pmin
(гПа)
dP
(гПа)
Po
(мм)
O2
(г/м3)
Тmin Tmax R s Состояние
почвы
06 05.04.20 320 (СЗ) 5{10}  20000 м    3/1 600 м средняя 
[Cu hum|Ac trans]
+1.4 -2.8 74 -1  1028.8  2.1  750  301  -1.5         
09 05.04.20 310 (СЗ) 8-12{13}  20000 м    4/4 600 м 
[Cu hum]
+6.1 -9.7 31 +3  1029.2  0.8  751  297           
12 05.04.20 300 (СЗ) 8-14{15}  20000 м    6/6 600 м 
[Sc diur, vesp]
+6.7 -9.5 30 +4  1028.6  -0.5  751  296           
15 05.04.20 330 (СЗ) 6-10{15}  20000 м    4/4 600 м 
[Sc diur, vesp]
+6.3 -11.2 27 +4  1029.5  0.8  751  297           
18 05.04.20 300 (СЗ) 3{11}  20000 м    4/0 средняя 
[Ac und]
+2.1 -10.5 39 +1  1031.1  1.2  752  302    +7.5       
21 05.04.20 280 (З) 20000 м    ясно 
+0.7 -9.8 45 1032.1  0.9  753  303           
00 06.04.20 260 (З) 20000 м    ясно 
-1.4 -8.4 59 -2  1033.6  1.2  754  306           
03 06.04.20 320 (СЗ) 20000 м    3/0 средняя 
[Ac trans]
-1.6 -8.1 61 -3  1034.3  0.7  754  307  -1.6         
06 06.04.20 тихо ()   20000 м    1/0 средняя 
[Ac lent]
+3.2 -12 32 +3  1035.4  1.5  755  302  -1.8         
09 06.04.20 300 (СЗ) 20000 м    9/8 600 м средняя 
[Sc|Ac und]
+7.3 -9.9 28 +6  1034.7  -0.2  755  297           
12 06.04.20 300 (СЗ) 20000 м    10/10 600 м 
[Sc]
+8.4 -4.7 39 +7  1033.9  -0.7  755  296           
15 06.04.20 310 (СЗ) 5{10}  20000 м    9/9 600 м 
[Sc]
+8.6 -1.6 49 +7  1033.3  -0.6  754  295           
18 06.04.20 тихо ()   20000 м    3/3 600 м 
[Sc]
+6 -0.7 62 +6  1034.1  0.5  755  298    +8.9       
21 06.04.20 260 (З) 20000 м    ясно 
+3.1 -0.5 77 +3  1035  0.6  755  301           
00 07.04.20 тихо ()   20000 м    6/6 600 м 
[Sc]
+0.8 -1 88 +1  1036  0.8  756  304           
03 07.04.20 тихо ()   20000 м    4/4 600 м 
[Sc]
-0.3 -1.7 90 -0  1037  0.8  756  305  -1.2         
06 07.04.20 тихо ()   20000 м    3/3 600 м 
[Sc]
+6.7 +1.7 70 +7  1036.6  0.3  757  297  -1.2         
09 07.04.20 260 (З) 20000 м    3/3 600 м 
[Cu hum]
+13 -0.9 38 +13  1034.6  -1.3  756  291           
12 07.04.20 270 (З) 20000 м    5/4 600 м верхняя 
[Cu hum|Ci fib]
+15.1 -3.7 27 +15  1032.4  -2  754  288           
15 07.04.20 240 (ЮЗ) 4{12}  20000 м    1/0 верхняя 
[Ci fib]
+15.3 -3.8 27 +15  1029.5  -2.8  752  287           
18 07.04.20 210 (ЮЗ) 20000 м    ясно 
+9.7 -5 35 +9  1027.9  -2.1  750  293    +15.8       
21 07.04.20 220 (ЮЗ) 20000 м    ясно 
+8 -5.8 37 +7  1026  -2  749  294           
00 08.04.20 210 (ЮЗ) 4000 м  дым  3/0 верхняя 
[Ci fib]
+5.6 -6.6 41 +4  1022.9  -3.2  746  295           
03 08.04.20 230 (ЮЗ) 4000 м  дым  6/0 средняя 
[Ac trans]
+4.6 -6.9 43 +3  1020.4  -2.5  745  296  +4.5         
06 08.04.20 300 (СЗ) 7-10{14}  20000 м    9/9 600 м 
[Sc]
+9.3 -0.1 52 +7  1020.2  0.3  745  290  +4.5         
Время (UTC), дата Ветер
(°,м/с) 
Видим.   Явления Облачность Т
(°С)
Тd
(°С)
f(%) Тe
(°С)
Pmin
(гПа)
dP
(гПа)
Po
(мм)
O2
(г/м3)
Тmin Tmax R s Состояние
почвы

Для получения пояснительной информации подведите курсор к названию столбца.

ПОГОДА в Рославле - архив

Всё, что Вы хотите узнать о погоде в Рославле - удобно и подробно!

Выберите нужную дату (начиная с 1 января 2019* года) и нажмите кнопку "Найти".
Будут отображены архивные сводки погоды по пункту Рославль, начиная с указанной даты.


Отображать данные в формате CSV (для использования в таблицах Excel)


Внимание! Наш архив погоды предназначен исключительно для личного некоммерческого использования в познавательных целях. Если Вам необходимы официальные справки о состоянии погоды (для производственных, юридических, коммерческих и т.п. целей), обращайтесь в органы Росгидромета.

*Примечание: данная дата относится к архиву по метеостанциям СССР (Россия, СНГ, Балтия).
Архив по метеостанциям Зарубежной Европы и Азии (кроме Китая) хранится 10 дней, по другим регионам земного шара (Китай, Африка, Америка, Австралия, Океания) - 1 день.

Рославль - район местоположения метеостанции


Название, широта, долгота, высота метеостанции:
Рославль 53.9°ш. 32.8°д. 224 м над ур. моря [Российская Федерация]

Дополнительная информация

В oтличие oт бoльшинства пoгoдных сайтoв мы публикуем пoдрoбную метеoинфoрмацию в детальнoм прoфессиoнальнoм фoрмате.

Характеристики температуры и влажнoсти вoздуха измеряются на высoте 2 м в тени вдали oт зданий и деревьев.
Скoрoсть ветра измеряется на высoте 10 м (на урoвне рoста челoвека скoрoсть ветра ниже в 1.5-2 раза). Если метеoстанция нахoдится в гoрoде или в лесу, тo скoрoсть ветра занижена на 2-4 м/с пo сравнению с oткрытым местoм. Скoрoсть ветра над акватoриями крупных рек и oзёр, а также на вершинах хoлмoв на 2-5 м/с выше, чем в oбычных услoвиях.
Атмoсфернoе давление в разных тoчках местнoсти мoжет значительнo oтличаться oт давления на метеoстанции, в зависимoсти oт услoвий рельефа (при пoдъёме на 10 м давление пoнижается примернo на 1 мм рт.ст.).